STARLINK-3138, 49430

Orbit data source: Space-Track

STARLINK-3138, 49430 is a payload satellite owned by SpaceX/Seattle (US) in LEO that was launched on Sat, 13 Nov 2021 UTC via an FALCON 9 launch vehicle from the Air Force Eastern Test Range (AFETR). Payload-class satellites include a variety of spacecraft equipped with specific instruments for various scientific and technological missions. These include communications satellites like Starlink; space stations such as the ISS; scientific satellites like the Hubble; Earth observation satellites from companies like Planet Labs, Umbra, and HawkEye 360; GPS; miniature CubeSats for education and research; and military/defense satellites.

Loading next visibility...
Identifier
49430, 2021-104Y
Orbit
LEO
Country
Flag of USUS
Related business
Manufacturer
SpaceX/Seattle
Mission
Operational Commercial Communications
Bus & Motor
STARLINK, Unknown motor
Mass
290 kg wet, ~270 kg dry
Launch date (UTC)
2021-11-13 (5 years ago)
Launch vehicle
FALCON 9
Launch site
Air Force Eastern Test Range (AFETR)
Object type
Payload
Rocket body
Debris
Shape & HBR
Box + 1 Pan, 10.1 m
Radar Cross Section
13.562 m², Large (>1 m²)

Expand to show TLE details & history
Last TLE update: 1 week ago

TLE from 1 week ago
0 STARLINK-3138
1 49430U 21104Y   26152.48820865  .00004989  00000-0  33139-3 0  9997
2 49430  53.1905 213.1936 0001691  58.6826 301.4331 15.08833781251289
Epoch: 2026-06-01T11:43Z
TLE epoch observation values (Epoch: 2026-06-01T11:43:01.227Z)
Latitude
-0.00003°
Longitude
147.46365°
Altitude
540.047 km
Speed
7.594 km/s
True Right ascension
14h 12m 46s
True Declination
0° 00' 00"
Sunlit
Object was in full shadow at epoch
Visualization orbit readout
Latitude
Unknown
Longitude
Unknown
Altitude
Unknown
Speed
Unknown
Apparent Right ascension
Unknown
Apparent Declination
Unknown
Sunlit
N/A
Visualization observer readout
Local Sidereal Time
14:52:49
Azimuth
Unknown
Elevation
Unknown
Doppler factor
Unknown
Orbital elements
Apogee altitude
541.181 km
Perigee altitude
538.842 km
Semi-major axis
6,918.149 km
Eccentricity
0.00017
Inclination
53.1905°
RAAN
213.1936°
Arg. of periapsis
58.6826°
True anomaly
301.41656°
Mean anomaly
301.4331°
Eccentric anomaly
301.42483°
Mean motion
3.77188 °/min
Orbital period
95.44 mins
BSTAR
0.00033139
Loading maneuver chart data...
Computing Atmospheric mass density...
Loading historical data...
Loading historical data...
Loading historical data...
Loading historical data...
Loading historical data...
Loading historical data...
Loading historical data...

Documentation

Showing up to 5 results
|